Orbital Elements at Epoch 2459200.5 (2020-Dec-17.0) TDB
Reference: JPL 21 (heliocentric ecliptic J2000)
Element | Value | Uncertainty (1-sigma) | Units |
e | .19689592598952 | 4.7225e-08 | |
a | 3.124939311661141 | 2.2074e-08 | au |
q | 2.509651492230567 | 1.5115e-07 | au |
i | 6.068917088932849 | 4.0224e-06 | deg |
node | 124.1550637985198 | 5.265e-05 | deg |
peri | 251.0610425901665 | 5.3645e-05 | deg |
M | 285.0686396223801 | 1.3803e-05 | deg |
tp | 2459620.473535766377 (2022-Feb-09.97353577) | 8.0176e-05 | TDB |
period | 2017.719578477751 5.52 | 2.1379e-05 5.853e-08 | d yr |
n | .1784192431098867 | 1.8905e-09 | deg/d |
Q | 3.740227131091714 | 2.642e-08 | au |
|
| | Orbit Determination Parameters
Additional Information
|